#timestamp,LO_Frequency,Hit,StdDev 
1591419615.6,286046999.8,N
1591419635.4,286047002.2,N
1591419655.2,286047002.2,N
1591419675.1,286047001.9,N
1591419676.0,286047001.9,N
1591419695.8,286047001.5,N
1591419715.6,286047002.5,N
1591419735.5,286047001.8,N
1591419755.3,286047004.2,Y
1591419775.2,286047001.9,P
1591419795.9,286047001.8,P
1591419815.7,286047001.7,P
1591419835.6,286047001.3,Y
1591419855.4,286047000.4,P
1591419875.2,286047001.1,N
1591419895.1,286046998.6,N
1591419896.0,286046998.6,N
1591419915.8,286046998.8,N
1591419935.7,286046998.7,N
1591419955.5,286046998.4,N
1591419975.3,286046996.5,N
1591419995.2,286046998.7,N
1591420015.0,286046999.4,N
1591420015.9,286046999.4,N
1591420035.7,286046998.3,N
1591420055.6,286046998.3,N
1591420075.4,286046998.4,N
1591420095.3,286046999.5,N
1591420115.1,286046998.9,N
1591420116.0,286046998.9,N
1591420135.8,286046998.9,N
1591420155.7,286046998.8,N
1591420175.5,286046999.2,N
1591420195.3,286046998.8,N
1591420215.2,286046998.3,N
1591420235.0,286046998.5,N
1591420235.9,286046998.5,N
1591420255.8,286046999.3,N
1591420275.6,286046999.3,N
1591420295.4,286046998.7,N
1591420315.3,286046998.7,N
1591420335.1,286046999.3,N
1591420355.8,286046998.9,N
1591420375.7,286046998.4,N
1591420395.5,286046998.5,N
1591420415.4,286046998.3,Y
1591420435.2,286047000.9,P
1591420455.0,286046998.1,N
1591420455.9,286046998.1,N
1591420475.8,286046998.4,N
1591420495.6,286046998.1,N
1591420515.4,286046998.4,N
1591420535.3,286046998.4,N
1591420555.1,286046996.7,Y
1591420575.9,286046999.0,P
1591420595.7,286046998.4,P
1591420615.5,286047000.7,N
1591420635.4,286047000.0,N
1591420655.2,286047000.0,N
1591420675.0,286047000.8,N
1591420676.0,286047000.8,N
1591420695.8,286047000.7,N
1591420715.6,286047000.1,N
1591420735.5,286047002.7,Y
1591420755.3,286047002.3,P
1591420775.1,286047000.0,N
1591420795.9,286047002.4,N
1591420815.7,286046999.7,N
1591420835.5,286047000.0,N
1591420855.4,286047000.3,N
1591420875.2,286047000.2,N
1591420895.1,286047001.0,N
1591420896.0,286047001.0,N
1591420915.8,286046998.9,N
1591420935.6,286047000.8,N
1591420955.5,286047000.8,N
1591420975.3,286046999.4,N
1591420995.1,286046999.3,N
1591421015.9,286046999.5,N
1591421035.7,286046998.9,N
1591421055.6,286046998.9,N
1591421075.4,286046999.6,N
1591421095.2,286046996.6,Y
1591421115.1,286046999.4,P
1591421116.0,286046999.4,N
1591421135.8,286046998.7,P
1591421155.6,286046996.5,Y
1591421175.5,286046999.2,P
1591421195.3,286046998.8,P
1591421215.2,286047000.7,N
1591421235.9,286047001.2,N
1591421255.7,286046998.3,N
1591421275.6,286046999.5,N
1591421295.4,286046998.4,N
1591421315.3,286046997.0,Y
1591421335.1,286046999.3,P
1591421336.0,286046999.3,P
1591421355.8,286046998.8,P
1591421375.7,286047000.7,N
1591421395.5,286047001.0,N
1591421415.3,286047000.3,N
1591421435.2,286047002.8,Y
1591421455.0,286046999.8,P
1591421455.9,286046999.8,P
1591421475.8,286047002.3,P
1591421495.6,286046999.7,N
1591421515.4,286047000.4,N
1591421535.3,286046999.7,N
1591421555.1,286047000.1,N
1591421575.8,286047001.2,N
1591421595.7,286047001.1,N
1591421615.5,286047000.7,N
1591421635.4,286047000.2,N
1591421655.2,286046999.8,N
1591421675.0,286046999.9,N
1591421675.9,286046999.9,N
1591421695.8,286047000.1,N
1591421715.6,286046999.9,N
1591421735.4,286047000.7,N
1591421755.3,286047002.8,Y
1591421775.1,286047002.8,P
1591421795.9,286046999.8,N
1591421815.7,286047000.4,N
1591421835.5,286047000.4,N
1591421855.4,286047002.8,N
1591421875.2,286047000.3,N
1591421895.0,286047002.8,N
1591421895.9,286047002.8,N
1591421915.8,286047002.7,N
1591421935.6,286047002.8,N
1591421955.5,286047000.1,N
1591421975.3,286047002.5,N
1591421995.1,286047002.6,N
1591422015.9,286047002.6,N
1591422035.7,286047002.1,N
1591422055.5,286047001.8,N
1591422075.4,286047001.9,N
1591422095.2,286047003.9,Y
1591422115.0,286046999.8,P
1591422116.0,286046999.8,N
1591422135.8,286046999.9,N
1591422155.6,286047000.9,N
1591422175.5,286047001.0,N
1591422195.3,286047000.2,N
1591422215.1,286046998.5,N
1591422235.9,286046998.8,N
1591422255.7,286046998.4,N
1591422275.5,286046998.7,N
1591422295.4,286046999.5,N
1591422315.2,286046996.5,Y
1591422335.1,286046996.5,P
1591422336.0,286046996.5,N
1591422355.8,286046996.8,N
1591422375.6,286046999.4,N
1591422425.5,286046998.4,E
1591422435.4,286047000.6,N
1591422455.3,286047000.1,P
1591422475.1,286047000.3,N
1591422495.8,286047002.1,Y
1591422515.7,286047000.4,P
1591422535.5,286046999.8,P
1591422555.4,286046999.7,N
1591422575.2,286047001.0,Y
1591422595.0,286047000.8,P
1591422595.9,286047000.8,N
1591422615.8,286046999.7,N
1591422635.6,286047002.3,Y
1591422655.5,286047002.0,P
1591422675.3,286047000.0,N
1591422695.1,286047002.6,N
1591422715.9,286047002.2,N
1591422735.7,286047000.2,N
1591422755.5,286047000.3,N
1591422775.4,286047002.3,N
1591422795.2,286046999.9,N
1591422815.0,286047000.1,N
1591422816.0,286047000.1,N
1591422835.8,286046999.8,N
1591422855.6,286047000.2,N
1591422875.5,286046999.8,N
1591422895.3,286047002.7,N
1591422915.1,286047002.2,N
1591422935.9,286047002.8,N
1591422955.7,286047002.7,N
1591422975.5,286047002.8,N
1591422995.4,286046999.8,N
1591423015.2,286047002.5,N
1591423035.1,286046999.8,N
1591423036.0,286046999.8,N
1591423055.8,286047002.4,N
1591423075.6,286047000.1,N
1591423095.5,286047000.1,N
1591423115.3,286047002.8,N
1591423135.2,286046999.7,N
1591423155.9,286046999.7,N
1591423175.7,286046999.0,N
1591423195.6,286046999.6,N
